Weather observations for the past three days for
Barre / Montpelier, Knapp State Airport
Metric (Imperial)
Date Time (edt) Wind (kph) Vis. (km) Weather Sky Cond. Temperature (ºC) Relative Humidity Wind Chill (°C) Heat Index (°C) Pressure Precipitation (cm)
Air Dwpt 6 hour altimeter (cm) sea level (mb) 1 hr 3 hr 6 hr
Max. Min.
15 06:51 Calm 12.87 Overcast FEW060 OVC085 18.3 17.2 93% 76.02 1013.1 0.05
15 05:51 Calm 11.27 Light Rain SCT050 BKN070 OVC100 18.3 17.2 93% 76.02 1013.0
15 04:51 Calm 16.09 Overcast SCT070 OVC100 18.3 17.2 93% 76 1012.5
15 03:51 N 6 8.05 Fog/Mist FEW001 BKN070 OVC085 17.8 16.7 93% 76 1012.6
15 02:51 NE 6 16.09 Overcast BKN080 OVC095 18.3 16.7 90% 76 1012.6
15 01:51 Calm 16.09 A Few Clouds FEW070 17.2 16.1 23.9 17.2 93% 76.05 1013.2
15 00:51 Calm 16.09 Fair CLR 17.2 16.1 93% 76.1 1013.9
14 23:51 Calm 16.09 Fair CLR 18.9 16.7 87% 76.12 1014.3
14 22:51 Calm 16.09 Fair CLR 20.6 17.2 81% 76.1 1014.1
14 21:51 SW 6 16.09 Fair CLR 20 17.2 84% 76.12 1014.4
14 20:51 SW 7 16.09 Fair CLR 21.7 17.2 76% 76.12 1014.5
14 19:51 Calm 16.09 Fair CLR 23.9 17.8 28.3 23.9 69% 25 76.15 1014.6
14 18:51 SW 6 16.09 Fair CLR 26.7 15.6 51% 27 76.15 1014.8
14 17:51 W 6 16.09 A Few Clouds FEW055 27.2 15.6 49% 28 76.15 1014.6
14 16:51 Vrbl 6 16.09 Fair CLR 28.3 13.9 41% 28 76.17 1014.9
14 15:51 Vrbl 7 16.09 Fair CLR 28.3 14.4 43% 28 76.2 1015.4
14 14:51 NW 9 16.09 A Few Clouds FEW050 27.8 15 46% 28 76.28 1016.5
14 13:51 Vrbl 11 16.09 Overcast BKN049 OVC060 27.8 16.7 27.8 18.3 51% 28 76.33 1016.9
14 12:51 NW 13 16.09 Partly Cloudy SCT048 SCT060 27.2 15.6 49% 28 76.38 1017.5
14 11:51 SW 11 16.09 Partly Cloudy SCT045 26.7 16.1 52% 27 76.4 1018.1
14 10:51 Vrbl 7 16.09 Fair CLR 25.6 16.7 58% 26 76.43 1018.4
14 09:51 Calm 16.09 Fair CLR 24.4 18.3 69% 25 76.45 1018.5
14 08:51 Calm 16.09 Fair CLR 20.6 18.3 87% 76.48 1019.2
14 07:51 Calm 1.21 Fog/Mist VV001 18.3 17.8 18.3 16.1 97% 76.48 1019.3
14 06:51 Calm 0.40 Fog VV001 16.7 16.1 96% 76.5 1019.4
14 05:51 Calm 0.24 Fog VV001 16.7 15.6 93% 76.48 1019.2
14 04:51 Calm 0.40 Fog VV001 16.1 15 93% 76.48 1019.2
14 03:51 Calm 0.40 Fog VV001 16.7 15.6 93% 76.48 1019.0
14 02:51 Calm 0.80 Fog VV001 16.7 15.6 93% 76.48 1019.2
14 01:51 E 7 2.01 Fog/Mist FEW001 17.2 16.1 23.9 17.2 93% 76.48 1019.3
14 00:51 Calm 16.09 Fair CLR 17.8 16.1 90% 76.5 1019.6
13 23:51 S 6 16.09 Fair CLR 18.3 16.7 90% 76.56 1020.2
13 22:51 Calm 16.09 Fair CLR 18.9 17.2 90% 76.56 1020.0
13 21:51 SW 6 16.09 Fair CLR 20.6 18.3 87% 76.53 1019.9
13 20:51 Calm 16.09 Fair CLR 21.1 18.3 84% 76.53 1019.7
13 19:51 Calm 16.09 Fair CLR 24.4 18.3 27.2 22.8 69% 25 76.53 1019.6 0.03
13 18:51 NW 13 16.09 Fair CLR 25.6 17.8 62% 27 76.5 1019.4
13 17:51 W 11 16.09 A Few Clouds FEW035 FEW046 26.7 18.3 60% 28 76.48 1019.2
13 16:51 NW 7 16.09 Fair CLR 26.7 17.8 58% 28 76.5 1019.5 0.03
13 15:51 NW 6 16.09 Mostly Cloudy BKN110 26.1 18.3 62% 27 76.53 1019.8
13 14:51 W 11 11.27 Light Rain FEW070 OVC100 22.8 20 84% 76.58 1020.5 0.03
13 13:51 NW 11 16.09 A Few Clouds FEW110 26.1 19.4 27.8 20.6 67% 27 76.58 1020.4
13 12:51 N 13 16.09 Mostly Cloudy FEW047 SCT065 BKN110 26.7 17.8 58% 28 76.61 1020.8
13 11:51 NW 6 16.09 Partly Cloudy SCT045 26.1 18.3 62% 27 76.66 1021.3
13 10:51 Calm 16.09 Overcast SCT037 BKN050 OVC110 25.6 17.8 62% 27 76.66 1021.5
13 09:51 W 7 16.09 A Few Clouds FEW025 25.6 19.4 69% 27 76.68 1021.7
13 08:51 Calm 16.09 Fair CLR 23.3 20.6 85% 76.71 1022.1
13 07:51 NE 7 16.09 Fair CLR 21.1 19.4 21.1 18.3 90% 76.73 1022.5
13 06:51 Calm 0.80 Fog VV001 19.4 18.9 97% 76.73 1022.6
13 05:51 Calm 0.40 Fog VV001 18.9 17.8 93% 76.73 1022.3
13 04:51 Calm 0.40 Fog VV001 18.9 17.8 93% 76.68 1022.0
13 03:51 Calm 8.05 Fog/Mist CLR 19.4 18.3 93% 76.68 1021.8
13 02:51 Vrbl 6 16.09 Mostly Cloudy BKN095 21.1 18.9 87% 76.66 1021.6
13 01:51 Calm 16.09 Light Rain FEW055 BKN095 OVC120 20.6 18.9 23.9 20 90% 76.71 1022.1
13 00:51 S 6 16.09 Overcast OVC095 21.1 18.9 87% 76.71 1022.3
12 23:51 Calm 16.09 Overcast OVC070 20 18.9 93% 76.76 1022.8
12 22:51 SE 6 16.09 Fair CLR 21.1 18.9 87% 76.73 1022.7
12 21:51 Calm 16.09 Fair CLR 21.1 19.4 90% 76.73 1022.6
12 20:51 SW 6 16.09 Fair CLR 22.2 20 87% 76.68 1021.8
12 19:51 S 6 16.09 Fair CLR 23.9 21.1 26.7 23.9 84% 24 76.68 1021.8
12 18:51 Calm 16.09 A Few Clouds FEW042 FEW060 25.6 20 71% 27 76.68 1021.7
12 17:51 Calm 16.09 Mostly Cloudy BKN029 BKN034 26.7 19.4 64% 28 76.66 1021.4
12 16:51 Calm 16.09 Overcast BKN034 BKN046 OVC065 25.6 20 71% 27 76.68 1021.7
12 15:51 NW 7 16.09 Overcast FEW028 OVC070 26.1 19.4 67% 27 76.68 1021.9
12 14:51 Calm 16.09 Overcast SCT050 OVC060 25 18.9 69% 26 76.71 1022.2
12 13:51 N 6 16.09 Overcast FEW014 BKN035 OVC050 24.4 20.6 25 20 79% 25 76.71 1022.3 0.56
12 12:51 N 6 16.09 Mostly Cloudy FEW007 SCT029 BKN038 23.3 20.6 85% 76.73 1022.5
12 11:51 NW 9 16.09 Overcast BKN005 OVC016 22.2 20 87% 76.73 1022.6 0.15
12 10:51 NE 6 8.05 Light Rain Fog/Mist SCT006 BKN015 OVC025 21.1 19.4 90% 76.73 1022.5 0.1 0.41
12 09:51 Calm 16.09 Overcast SCT006 BKN013 OVC018 21.1 19.4 90% 76.73 1022.4 0.1
12 08:51 Calm 2.41 Light Rain Fog/Mist SCT003 OVC016 20.6 18.9 90% 76.71 1022.2 0.2
12 07:51 Calm 9.66 Light Rain Fog/Mist SCT003 OVC010 20 18.9 20.6 19.4 93% 76.66 1021.7 0.03 0.1
Date Time (edt) Wind (kph) Vis. (km) Weather Sky Cond. Air Dwpt Max. Min. Relative Humidity Wind Chill (°C) Heat Index (°C) altimeter (cm) sea level (mb) 1 hr 3 hr 6 hr
6 hour
Temperature (ºC) Pressure Precipitation (cm)